Regional Weather Roundup
Issued by NWS Charleston, SC

Current Version | Previous Version | Graphics & Text | Print | Product List | Glossary On
Versions: 1 2 3 4 5 6 7 8 9 10 11 12 13 14 15 16 17 18 19 20 21 22 23 24 25 26 27 28 29 30 31 32 33 34 35 36 37 38 39 40 41 42 43 44 45 46 47 48 49 50
000
ASUS42 KCHS 240527
RWRCHS

Regional Weather Roundup
National Weather Service Charleston SC
1200 AM EST SAT FEB 24 2018

NOTE: "fair" indicates few or no clouds below 12,000 feet with no
significant weather and/or obstructions to visibility.

Not all stations are quality controlled. Use data with caution,
especially dewpoint observations.

SCZ027-030-031-034>040-042>050-240600-
...Southeast South Carolina...

CITY           SKY/WX    TMP DP  RH WIND       PRES   REMARKS
N Charleston   FAIR      63  63 100 S5        30.31F
Waterfront Prk   N/A     64  64 100 CALM      30.17F
Mount Pleasant FAIR      61  61 100 CALM      30.31F
Johns Island   FOG       63  63 100 CALM      30.31F VSB 1/2
Pinopolis        N/A     63  63 100 VRB2      30.22F
Moncks Corner  FOG       61  61 100 CALM      30.31S VSB 1/4
Summerville    FAIR      61  61 100 CALM      30.31F
Beaufort MCAS  FAIR      65  64  97 S5        30.31F
Beaufort Arpt  FAIR      61  61 100 CALM      30.31S
Hilton Head Is FAIR      61  61 100 CALM      30.32F
Walterboro     FOG       59  59 100 CALM      30.31F VSB 1/4
Allendale      FAIR      63  63 100 CALM      30.29F

...Southern Midlands and Pee Dee...

CITY           SKY/WX    TMP DP  RH WIND       PRES   REMARKS
Georgetown     FAIR      61  61 100 CALM      30.32S FOG
Kingstree        N/A     59  57  94 CALM      30.31F
Orangeburg     FAIR      63  61  93 S3        30.30F
Barnwell         N/A     64  64 100 SE5       30.29F
Aiken          FAIR      61  59  94 CALM      30.32F
Manning        FAIR      61  59  94 MISG      30.30F
Columbia       FAIR      65  61  87 CALM      30.28F
Sumter         FAIR      63  60  91 S3        30.28F
Florence       FAIR      63  62  97 S5        30.31S
Myrtle Beach   FAIR      65  63  93 S13       30.32F
N Myrtle Beach FAIR      64  62  93 SW8       30.31F

$$

GAZ063-065-086>088-099>101-113>116-118-119-134>141-150-240600-
...Southeast Georgia...

CITY           SKY/WX    TMP DP  RH WIND       PRES   REMARKS
Savannah Arpt  FAIR      63  63 100 S5        30.31F
Hunter AAF     FAIR      65  62  91 CALM      30.28F
Fort Stewart   FOG       61  61 100 CALM      30.28F VSB 3/4
Statesboro     FAIR      62  32  32 CALM      30.30F
Sylvania       FAIR      62  62 100 CALM      30.30F
Claxton        FAIR      61  60  97 CALM      30.29F

...CSRA, Central and far Southeast Georgia...

CITY           SKY/WX    TMP DP  RH WIND       PRES   REMARKS
Thomson        FAIR      63  59  87 SW3       30.32F
Augusta-Bush   FAIR      62  59  90 SE8       30.27F
Augusta-Daniel FAIR      66  59  78 SE5       30.29F
Swainsboro     FAIR      64  63  94 SE7       30.28F
Vidalia        FAIR      64  64 100 S3        30.28F
Eastman        FAIR      66  57  74 SE3       30.29F
Hazlehurst     FAIR      67  61  80 S6        30.27F
Alma           FAIR      65  62  90 SE6       30.29F
Waycross       FAIR      65  62  90 SE3       30.29F
Jesup          FAIR      63  61  94 CALM      30.30F
Baxley         FAIR      63  63 100 SE6       30.27F
Brunswick      FOG       59  55  88 CALM      30.31S VSB 1/2
Saint Simons   FAIR      66  64  93 SE6       30.30S

$$

SCZ027-028-034-036>038-045-046-048>050-GAZ119-141-240600-
...Lake and Supplemental Coastal Observations...

STATION/POSITION TIME  TEMP    WIND        PRES    WAVE   SWELL
                       AIR SEA DIR/SP/G            HT/PER HT/PER/DIR
                 (UTC) (F)     (DEG/KT/KT) (MB)    (FT/S) (FT/S/D)
Winyah Bay       0445   65     180/  2     1027.0S
Lake Murray      0430   65     160/  7/  8 1024.7F
ACE Basin NERRS  0445   62     140/  1     1026.0F
Fort Pulaski     0500   65 62  170/  2/  3 1026.6
Sapelo Island    0500   64        CALM     1026.0

$$

ANZ835-935-AMZ111-154-330-350-352-354-370-450-454-472-240600-
...C-MAN and Buoy Observations...

STATION/POSITION TIME  TEMP    WIND        PRES    WAVE   SWELL
                       AIR SEA DIR/SP/G            HT/PER HT/PER/DIR
                 (UTC) (F)     (DEG/KT/KT) (MB)    (FT/S) (FT/S/D)
Buoy 41004       0510   69 68  150/  6/  8 1026.2
Buoy 41008       0350   63 60  130/  6/  6 1026.1    4/ 8   3/130/ 8
Folly Beach CMAN 0500   64     200/  4/  4 1027.0F
Capers Nearshore 0408   60 63  270/  4/  8 1026.6S
Fripp Nearshore  0508   60 62   50/  2/  4 1025.3F


STATION/POSITION TIME  TEMP    WIND        PRES    WAVE   SWELL
                       AIR SEA DIR/SP/G            HT/PER HT/PER/DIR
                 (UTC) (F)     (DEG/KT/KT) (MB)    (FT/S) (FT/S/D)
5E St. Marys GA  0500      66                N/A     3/ 8   2/110/11
Frying Pan Buoy  0510   72 71  180/ 10/ 14 1026.2
Buoy 41025       0510   72 73  220/ 12/ 16 1026.5
Cape Lookout NC  0500          190/  7/  7 1026.7F
Buoy 41002       0450   71 73  170/  8/ 12 1027.8F   5/ 9   5/110/ 9
Buoy 41010       NOT AVBL
St Augustine FL  0500   69 68  140/  8/  8 1025.6F


$$




USA.gov is the U.S. government's official web portal to all federal, state and local government web resources and services.